Time,TemperatureF,DewpointF,PressureIn,WindDirection,WindDirectionDegrees,WindSpeedMPH,WindSpeedGustMPH,Humidity,HourlyPrecipIn,Conditions,Clouds,dailyrainin,SoftwareType,DateUTC
2013-01-12 00:10:00,39.0,34.0,30.19,NNE,33,0.0,2.0,83,0.00,,,0.00,weatherlink.com 1.10,2013-01-12 08:10:00,
2013-01-12 00:26:00,36.2,32.0,30.19,NW,320,0.0,2.0,85,0.00,,,0.00,weatherlink.com 1.10,2013-01-12 08:26:00,
2013-01-12 00:41:00,35.3,32.0,30.18,NNE,15,0.0,0.0,88,0.00,,,0.00,weatherlink.com 1.10,2013-01-12 08:41:00,
2013-01-12 00:56:00,35.7,33.0,30.19,ENE,77,0.0,4.0,89,0.00,,,0.00,weatherlink.com 1.10,2013-01-12 08:56:00,
2013-01-12 01:11:00,37.6,33.0,30.18,NE,45,1.0,2.0,84,0.00,,,0.00,weatherlink.com 1.10,2013-01-12 09:11:00,
2013-01-12 01:26:00,37.8,33.0,30.19,ENE,65,0.0,0.0,82,0.00,,,0.00,weatherlink.com 1.10,2013-01-12 09:26:00,
2013-01-12 01:41:00,37.6,33.0,30.19,East,100,0.0,0.0,82,0.00,,,0.00,weatherlink.com 1.10,2013-01-12 09:41:00,
2013-01-12 01:56:00,38.5,33.0,30.19,NE,52,0.0,0.0,80,0.00,,,0.00,weatherlink.com 1.10,2013-01-12 09:56:00,
2013-01-12 02:11:00,38.5,33.0,30.19,NNW,337,2.0,2.0,80,0.00,,,0.00,weatherlink.com 1.10,2013-01-12 10:11:00,
2013-01-12 02:26:00,38.4,33.0,30.19,ESE,103,0.0,0.0,81,0.00,,,0.00,weatherlink.com 1.10,2013-01-12 10:26:00,
2013-01-12 02:41:00,38.1,33.0,30.19,East,101,0.0,0.0,81,0.00,,,0.00,weatherlink.com 1.10,2013-01-12 10:41:00,
2013-01-12 02:56:00,37.5,33.0,30.20,WNW,297,0.0,0.0,82,0.00,,,0.00,weatherlink.com 1.10,2013-01-12 10:56:00,
2013-01-12 03:13:00,37.6,33.0,30.20,WNW,300,0.0,2.0,83,0.00,,,0.00,weatherlink.com 1.10,2013-01-12 11:13:00,
2013-01-12 03:26:00,37.7,33.0,30.20,NW,316,0.0,0.0,83,0.00,,,0.00,weatherlink.com 1.10,2013-01-12 11:26:00,
2013-01-12 03:41:00,37.5,33.0,30.20,ESE,113,0.0,0.0,83,0.00,,,0.00,weatherlink.com 1.10,2013-01-12 11:41:00,
2013-01-12 03:56:00,36.9,33.0,30.20,NNE,18,0.0,0.0,84,0.00,,,0.00,weatherlink.com 1.10,2013-01-12 11:56:00,
2013-01-12 04:11:00,36.8,33.0,30.20,SE,134,0.0,0.0,85,0.00,,,0.00,weatherlink.com 1.10,2013-01-12 12:11:00,
2013-01-12 04:26:00,36.4,32.0,30.19,East,98,0.0,3.0,85,0.00,,,0.00,weatherlink.com 1.10,2013-01-12 12:26:00,
2013-01-12 04:41:00,36.2,32.0,30.19,SE,129,0.0,0.0,86,0.00,,,0.00,weatherlink.com 1.10,2013-01-12 12:41:00,
2013-01-12 04:56:00,35.5,32.0,30.20,SE,130,0.0,0.0,87,0.00,,,0.00,weatherlink.com 1.10,2013-01-12 12:56:00,
2013-01-12 05:11:00,34.9,31.0,30.20,SE,131,0.0,1.0,87,0.00,,,0.00,weatherlink.com 1.10,2013-01-12 13:11:00,
2013-01-12 05:26:00,35.0,31.0,30.20,North,6,0.0,0.0,86,0.00,,,0.00,weatherlink.com 1.10,2013-01-12 13:26:00,
2013-01-12 05:41:00,34.9,31.0,30.21,ENE,78,0.0,0.0,87,0.00,,,0.00,weatherlink.com 1.10,2013-01-12 13:41:00,
2013-01-12 05:56:00,35.9,32.0,30.21,ENE,58,0.0,1.0,84,0.00,,,0.00,weatherlink.com 1.10,2013-01-12 13:56:00,
2013-01-12 06:11:00,33.9,31.0,30.22,ENE,58,0.0,0.0,87,0.00,,,0.00,weatherlink.com 1.10,2013-01-12 14:11:00,
2013-01-12 06:26:00,33.2,30.0,30.22,ENE,69,0.0,0.0,88,0.00,,,0.00,weatherlink.com 1.10,2013-01-12 14:26:00,
2013-01-12 06:41:00,33.2,30.0,30.22,NE,35,0.0,0.0,87,0.00,,,0.00,weatherlink.com 1.10,2013-01-12 14:41:00,
2013-01-12 06:56:00,31.3,29.0,30.22,North,350,0.0,0.0,89,0.00,,,0.00,weatherlink.com 1.10,2013-01-12 14:56:00,
2013-01-12 07:11:00,30.8,28.0,30.23,NE,49,0.0,1.0,90,0.00,,,0.00,weatherlink.com 1.10,2013-01-12 15:11:00,
2013-01-12 07:26:00,29.9,27.0,30.23,ESE,117,0.0,0.0,90,0.00,,,0.00,weatherlink.com 1.10,2013-01-12 15:26:00,
2013-01-12 07:41:00,29.8,28.0,30.23,SE,139,0.0,0.0,92,0.00,,,0.00,weatherlink.com 1.10,2013-01-12 15:41:00,
2013-01-12 07:56:00,29.4,27.0,30.24,SE,139,0.0,0.0,92,0.00,,,0.00,weatherlink.com 1.10,2013-01-12 15:56:00,
2013-01-12 08:12:00,29.5,28.0,30.24,SE,141,0.0,0.0,93,0.00,,,0.00,weatherlink.com 1.10,2013-01-12 16:12:00,
2013-01-12 08:27:00,31.0,29.0,30.25,WSW,238,0.0,0.0,92,0.00,,,0.00,weatherlink.com 1.10,2013-01-12 16:27:00,
2013-01-12 08:42:00,32.1,30.0,30.25,NE,56,0.0,0.0,91,0.00,,,0.00,weatherlink.com 1.10,2013-01-12 16:42:00,
2013-01-12 08:57:00,34.7,32.0,30.25,ESE,103,0.0,0.0,91,0.00,,,0.00,weatherlink.com 1.10,2013-01-12 16:57:00,
2013-01-12 09:12:00,36.7,33.0,30.25,ESE,103,0.0,0.0,86,0.00,,,0.00,weatherlink.com 1.10,2013-01-12 17:12:00,
2013-01-12 09:27:00,37.7,33.0,30.25,SW,219,0.0,0.0,82,0.00,,,0.00,weatherlink.com 1.10,2013-01-12 17:27:00,
2013-01-12 09:42:00,39.2,33.0,30.25,SW,224,0.0,0.0,77,0.00,,,0.00,weatherlink.com 1.10,2013-01-12 17:42:00,
2013-01-12 09:57:00,40.6,33.0,30.25,SW,236,0.0,0.0,74,0.00,,,0.00,weatherlink.com 1.10,2013-01-12 17:57:00,
2013-01-12 10:12:00,41.5,34.0,30.25,NNW,344,0.0,0.0,74,0.00,,,0.00,weatherlink.com 1.10,2013-01-12 18:12:00,
2013-01-12 10:27:00,43.1,35.0,30.25,West,281,0.0,0.0,72,0.00,,,0.00,weatherlink.com 1.10,2013-01-12 18:27:00,
2013-01-12 10:57:00,45.9,34.0,30.24,West,266,0.0,0.0,64,0.00,,,0.00,weatherlink.com 1.10,2013-01-12 18:57:00,
2013-01-12 11:12:00,46.1,32.0,30.23,West,276,0.0,0.0,59,0.00,,,0.00,weatherlink.com 1.10,2013-01-12 19:12:00,
2013-01-12 11:27:00,46.7,32.0,30.22,WSW,248,1.0,3.0,57,0.00,,,0.00,weatherlink.com 1.10,2013-01-12 19:27:00,
2013-01-12 11:42:00,47.9,32.0,30.21,WSW,237,3.0,4.0,54,0.00,,,0.00,weatherlink.com 1.10,2013-01-12 19:42:00,
2013-01-12 11:57:00,48.4,29.0,30.20,West,260,3.0,4.0,48,0.00,,,0.00,weatherlink.com 1.10,2013-01-12 19:57:00,
2013-01-12 12:12:00,48.7,31.0,30.20,SW,224,2.0,3.0,50,0.00,,,0.00,weatherlink.com 1.10,2013-01-12 20:12:00,
2013-01-12 12:27:00,49.5,30.0,30.19,WSW,253,2.0,5.0,48,0.00,,,0.00,weatherlink.com 1.10,2013-01-12 20:27:00,
2013-01-12 12:42:00,49.7,28.0,30.18,South,169,1.0,3.0,44,0.00,,,0.00,weatherlink.com 1.10,2013-01-12 20:42:00,
2013-01-12 12:57:00,49.7,27.0,30.17,SSW,203,4.0,6.0,41,0.00,,,0.00,weatherlink.com 1.10,2013-01-12 20:57:00,
2013-01-12 13:12:00,49.9,27.0,30.17,South,169,0.0,6.0,41,0.00,,,0.00,weatherlink.com 1.10,2013-01-12 21:12:00,
2013-01-12 13:27:00,50.3,27.0,30.17,SSW,201,5.0,6.0,40,0.00,,,0.00,weatherlink.com 1.10,2013-01-12 21:27:00,
2013-01-12 13:42:00,50.6,27.0,30.16,SW,226,3.0,5.0,41,0.00,,,0.00,weatherlink.com 1.10,2013-01-12 21:42:00,
2013-01-12 13:57:00,50.2,26.0,30.16,West,271,0.0,3.0,39,0.00,,,0.00,weatherlink.com 1.10,2013-01-12 21:57:00,
2013-01-12 14:12:00,50.7,27.0,30.16,WNW,283,0.0,3.0,40,0.00,,,0.00,weatherlink.com 1.10,2013-01-12 22:12:00,
2013-01-12 14:28:00,51.6,28.0,30.16,WSW,242,0.0,2.0,41,0.00,,,0.00,weatherlink.com 1.10,2013-01-12 22:28:00,
2013-01-12 14:43:00,51.2,26.0,30.15,North,359,2.0,5.0,38,0.00,,,0.00,weatherlink.com 1.10,2013-01-12 22:43:00,
2013-01-12 14:58:00,50.6,28.0,30.15,WSW,246,1.0,3.0,42,0.00,,,0.00,weatherlink.com 1.10,2013-01-12 22:58:00,
2013-01-12 15:13:00,52.4,29.0,30.14,SSW,210,3.0,4.0,40,0.00,,,0.00,weatherlink.com 1.10,2013-01-12 23:13:00,
2013-01-12 15:28:00,51.8,28.0,30.14,WSW,244,1.0,5.0,40,0.00,,,0.00,weatherlink.com 1.10,2013-01-12 23:28:00,
2013-01-12 15:43:00,52.3,28.0,30.14,WSW,243,1.0,4.0,40,0.00,,,0.00,weatherlink.com 1.10,2013-01-12 23:43:00,
2013-01-12 15:58:00,52.4,30.0,30.14,SSW,200,1.0,6.0,43,0.00,,,0.00,weatherlink.com 1.10,2013-01-12 23:58:00,
2013-01-12 16:13:00,52.0,31.0,30.14,WSW,239,2.0,5.0,44,0.00,,,0.00,weatherlink.com 1.10,2013-01-13 00:13:00,
2013-01-12 16:28:00,51.3,30.0,30.14,WSW,249,5.0,7.0,44,0.00,,,0.00,weatherlink.com 1.10,2013-01-13 00:28:00,
2013-01-12 16:43:00,49.7,33.0,30.14,SW,232,0.0,5.0,52,0.00,,,0.00,weatherlink.com 1.10,2013-01-13 00:43:00,
2013-01-12 16:58:00,48.8,32.0,30.14,WSW,238,2.0,4.0,53,0.00,,,0.00,weatherlink.com 1.10,2013-01-13 00:58:00,
2013-01-12 17:13:00,46.9,32.0,30.14,SSE,149,2.0,3.0,57,0.00,,,0.00,weatherlink.com 1.10,2013-01-13 01:13:00,
2013-01-12 17:28:00,45.1,33.0,30.15,SE,136,1.0,3.0,62,0.00,,,0.00,weatherlink.com 1.10,2013-01-13 01:28:00,
2013-01-12 17:43:00,44.6,33.0,30.15,SE,132,3.0,3.0,63,0.00,,,0.00,weatherlink.com 1.10,2013-01-13 01:43:00,
2013-01-12 17:58:00,44.8,33.0,30.15,SE,142,1.0,2.0,63,0.00,,,0.00,weatherlink.com 1.10,2013-01-13 01:58:00,
2013-01-12 18:13:00,44.7,33.0,30.14,SSW,197,0.0,3.0,63,0.00,,,0.00,weatherlink.com 1.10,2013-01-13 02:13:00,
2013-01-12 18:28:00,44.4,33.0,30.14,ESE,113,1.0,3.0,64,0.00,,,0.00,weatherlink.com 1.10,2013-01-13 02:28:00,
2013-01-12 18:43:00,44.2,33.0,30.14,East,98,0.0,1.0,64,0.00,,,0.00,weatherlink.com 1.10,2013-01-13 02:43:00,
2013-01-12 18:58:00,44.3,32.0,30.15,ENE,71,0.0,1.0,63,0.00,,,0.00,weatherlink.com 1.10,2013-01-13 02:58:00,
2013-01-12 19:13:00,43.7,32.0,30.16,ENE,60,0.0,3.0,64,0.00,,,0.00,weatherlink.com 1.10,2013-01-13 03:13:00,
2013-01-12 19:28:00,43.2,32.0,30.16,ESE,104,0.0,2.0,65,0.00,,,0.00,weatherlink.com 1.10,2013-01-13 03:28:00,
2013-01-12 19:43:00,41.5,32.0,30.16,SSW,212,0.0,0.0,69,0.00,,,0.00,weatherlink.com 1.10,2013-01-13 03:43:00,
2013-01-12 19:58:00,40.4,32.0,30.15,SE,124,0.0,0.0,72,0.00,,,0.00,weatherlink.com 1.10,2013-01-13 03:58:00,
2013-01-12 20:13:00,39.0,31.0,30.15,East,83,0.0,0.0,73,0.00,,,0.00,weatherlink.com 1.10,2013-01-13 04:13:00,
2013-01-12 20:28:00,38.4,31.0,30.16,East,84,0.0,0.0,75,0.00,,,0.00,weatherlink.com 1.10,2013-01-13 04:28:00,
2013-01-12 20:43:00,37.5,30.0,30.16,East,84,0.0,0.0,75,0.00,,,0.00,weatherlink.com 1.10,2013-01-13 04:43:00,
2013-01-12 20:58:00,37.3,30.0,30.16,East,86,0.0,0.0,74,0.00,,,0.00,weatherlink.com 1.10,2013-01-13 04:58:00,
2013-01-12 21:13:00,36.8,30.0,30.16,East,86,0.0,0.0,76,0.00,,,0.00,weatherlink.com 1.10,2013-01-13 05:13:00,
2013-01-12 21:28:00,35.7,30.0,30.16,North,352,0.0,0.0,79,0.00,,,0.00,weatherlink.com 1.10,2013-01-13 05:28:00,
2013-01-12 21:43:00,35.4,30.0,30.16,ENE,73,0.0,0.0,79,0.00,,,0.00,weatherlink.com 1.10,2013-01-13 05:43:00,
2013-01-12 21:58:00,35.6,29.0,30.18,ENE,73,0.0,0.0,77,0.00,,,0.00,weatherlink.com 1.10,2013-01-13 05:58:00,
2013-01-12 22:13:00,35.3,28.0,30.18,NNE,28,0.0,3.0,76,0.00,,,0.00,weatherlink.com 1.10,2013-01-13 06:13:00,
2013-01-12 22:28:00,34.5,28.0,30.18,ESE,104,0.0,1.0,78,0.00,,,0.00,weatherlink.com 1.10,2013-01-13 06:28:00,
2013-01-12 22:43:00,33.5,28.0,30.19,ESE,105,0.0,0.0,80,0.00,,,0.00,weatherlink.com 1.10,2013-01-13 06:43:00,
2013-01-12 22:58:00,32.4,28.0,30.20,East,91,0.0,1.0,83,0.00,,,0.00,weatherlink.com 1.10,2013-01-13 06:58:00,
2013-01-12 23:13:00,32.1,28.0,30.20,NE,48,0.0,1.0,84,0.00,,,0.00,weatherlink.com 1.10,2013-01-13 07:13:00,
2013-01-12 23:28:00,32.8,28.0,30.20,ENE,63,1.0,4.0,83,0.00,,,0.00,weatherlink.com 1.10,2013-01-13 07:28:00,
2013-01-12 23:43:00,33.2,28.0,30.20,NE,50,2.0,3.0,82,0.00,,,0.00,weatherlink.com 1.10,2013-01-13 07:43:00,
2013-01-12 23:58:00,32.6,28.0,30.20,South,173,1.0,4.0,84,0.00,,,0.00,weatherlink.com 1.10,2013-01-13 07:58:00,